Location: Newark
(43.0000°N, 1.6781°W)
Time: 10:32:53
(UTC+00:00)

Explorer 7 - Pass Details

Date: 19 April 2021
Orbit: 484 x 677 km, 50.3° (Epoch: 07 May)

Event Time Altitude Azimuth Distance (km) Brightness Sun altitude
Rises 20:27:19 0° 239° (WSW) 2,623 10.6 -16.2°
Reaches altitude 10° 20:29:27 10° 239° (WSW) 1,765 9.7 -16.6°
Maximum altitude 20:33:28 88° 329° (NNW) 555 6.7 -17.2°
Enters shadow 20:37:38 11° 60° (ENE) 1,829 9.2 -17.8°
Drops below altitude 10° 20:37:47 10° 60° (ENE) 1,890 - -17.8°
Sets 20:40:08 0° 60° (ENE) 2,828 - -18.1°
